Time,TemperatureF,DewpointF,PressureIn,WindDirection,WindDirectionDegrees,WindSpeedMPH,WindSpeedGustMPH,Humidity,HourlyPrecipIn,Conditions,Clouds,dailyrainin,SoftwareType,DateUTC
2013-07-22 00:00:00,72.2,68.1,29.82,SE,135,1.3,1.3,87,0.00,,,0.00,WUHU216HW,2013-07-22 05:00:00,
2013-07-22 00:05:00,72.2,68.1,29.82,SE,135,1.3,1.3,87,0.00,,,0.00,WUHU216HW,2013-07-22 05:05:00,
2013-07-22 00:30:00,71.3,67.2,29.83,SE,135,0.0,0.0,87,0.00,,,0.00,WUHU216HW,2013-07-22 05:30:00,
2013-07-22 00:35:00,71.3,67.2,29.83,SE,135,0.0,0.0,87,0.00,,,0.00,WUHU216HW,2013-07-22 05:35:00,
2013-07-22 01:00:00,70.6,66.8,29.83,NNE,23,0.0,0.0,88,0.00,,,0.00,WUHU216HW,2013-07-22 06:00:00,
2013-07-22 01:05:00,70.6,66.8,29.83,NNE,23,0.0,0.0,88,0.00,,,0.00,WUHU216HW,2013-07-22 06:05:00,
2013-07-22 02:00:00,70.4,66.6,29.82,West,270,0.0,0.0,88,0.00,,,0.00,WUHU216HW,2013-07-22 07:00:00,
2013-07-22 02:05:00,70.4,66.6,29.82,West,270,0.0,0.0,88,0.00,,,0.00,WUHU216HW,2013-07-22 07:05:00,
2013-07-22 02:30:00,71.1,67.7,29.81,South,180,0.7,0.7,89,0.00,,,0.00,WUHU216HW,2013-07-22 07:30:00,
2013-07-22 02:35:00,71.1,67.7,29.81,South,180,0.7,0.7,89,0.00,,,0.00,WUHU216HW,2013-07-22 07:35:00,
2013-07-22 03:00:00,70.7,67.3,29.80,WSW,248,0.2,0.2,89,0.00,,,0.00,WUHU216HW,2013-07-22 08:00:00,
2013-07-22 03:05:00,70.7,67.3,29.80,WSW,248,0.2,0.2,89,0.00,,,0.00,WUHU216HW,2013-07-22 08:05:00,
2013-07-22 03:30:00,70.2,66.4,29.78,WNW,293,0.0,0.0,88,0.00,,,0.00,WUHU216HW,2013-07-22 08:30:00,
2013-07-22 03:35:00,70.2,66.4,29.78,WNW,293,0.0,0.0,88,0.00,,,0.00,WUHU216HW,2013-07-22 08:35:00,
2013-07-22 04:00:00,70.2,67.1,29.78,SW,225,0.9,0.9,90,0.00,,,0.00,WUHU216HW,2013-07-22 09:00:00,
2013-07-22 04:05:00,70.2,67.1,29.78,SW,225,0.9,0.9,90,0.00,,,0.00,WUHU216HW,2013-07-22 09:05:00,
2013-07-22 04:30:00,69.3,66.2,29.78,SW,225,1.1,1.1,90,0.00,,,0.00,WUHU216HW,2013-07-22 09:30:00,
2013-07-22 04:35:00,69.3,66.2,29.78,SW,225,1.1,1.1,90,0.00,,,0.00,WUHU216HW,2013-07-22 09:35:00,
2013-07-22 05:00:00,69.3,66.2,29.78,South,180,2.5,2.5,90,0.00,,,0.00,WUHU216HW,2013-07-22 10:00:00,
2013-07-22 05:05:00,69.3,66.2,29.78,South,180,2.5,2.5,90,0.00,,,0.00,WUHU216HW,2013-07-22 10:05:00,
2013-07-22 05:30:00,69.1,66.3,29.79,South,180,4.0,4.0,91,0.00,,,0.00,WUHU216HW,2013-07-22 10:30:00,
2013-07-22 05:35:00,69.1,66.3,29.79,South,180,4.0,4.0,91,0.00,,,0.00,WUHU216HW,2013-07-22 10:35:00,
2013-07-22 06:00:00,69.5,66.7,29.80,South,180,2.7,2.7,91,0.00,,,0.00,WUHU216HW,2013-07-22 11:00:00,
2013-07-22 06:05:00,69.5,66.7,29.80,South,180,2.7,2.7,91,0.00,,,0.00,WUHU216HW,2013-07-22 11:05:00,
2013-07-22 06:30:00,69.8,67.4,29.80,South,180,4.5,4.5,92,0.00,,,0.00,WUHU216HW,2013-07-22 11:30:00,
2013-07-22 06:35:00,69.8,67.4,29.80,South,180,4.5,4.5,92,0.00,,,0.00,WUHU216HW,2013-07-22 11:35:00,
2013-07-22 07:00:00,72.5,68.8,29.80,SSW,203,3.8,3.8,88,0.00,,,0.00,WUHU216HW,2013-07-22 12:00:00,
2013-07-22 07:05:00,72.5,68.8,29.80,SSW,203,3.8,3.8,88,0.00,,,0.00,WUHU216HW,2013-07-22 12:05:00,
2013-07-22 07:30:00,74.3,70.9,29.81,SSW,203,2.0,2.0,89,0.00,,,0.00,WUHU216HW,2013-07-22 12:30:00,
2013-07-22 07:35:00,74.3,70.9,29.81,SSW,203,2.0,2.0,89,0.00,,,0.00,WUHU216HW,2013-07-22 12:35:00,
2013-07-22 08:00:00,75.6,70.8,29.81,South,180,4.5,4.5,85,0.00,,,0.00,WUHU216HW,2013-07-22 13:00:00,
2013-07-22 08:05:00,75.6,70.8,29.81,South,180,4.5,4.5,85,0.00,,,0.00,WUHU216HW,2013-07-22 13:05:00,
2013-07-22 08:30:00,76.7,71.8,29.81,SW,225,3.6,3.6,85,0.00,,,0.00,WUHU216HW,2013-07-22 13:30:00,
2013-07-22 08:35:00,76.7,71.8,29.81,SW,225,3.6,3.6,85,0.00,,,0.00,WUHU216HW,2013-07-22 13:35:00,
2013-07-22 09:00:00,80.1,72.3,29.82,South,180,4.3,4.3,77,0.00,,,0.00,WUHU216HW,2013-07-22 14:00:00,
2013-07-22 09:05:00,80.1,72.3,29.82,South,180,4.3,4.3,77,0.00,,,0.00,WUHU216HW,2013-07-22 14:05:00,
2013-07-22 09:30:00,82.8,72.5,29.81,SW,225,5.6,5.6,71,0.00,,,0.00,WUHU216HW,2013-07-22 14:30:00,
2013-07-22 09:35:00,82.8,72.5,29.81,SW,225,5.6,5.6,71,0.00,,,0.00,WUHU216HW,2013-07-22 14:35:00,
2013-07-22 10:00:00,83.7,72.5,29.81,SSW,203,7.6,7.6,69,0.00,,,0.00,WUHU216HW,2013-07-22 15:00:00,
2013-07-22 10:05:00,83.7,72.5,29.81,SSW,203,7.6,7.6,69,0.00,,,0.00,WUHU216HW,2013-07-22 15:05:00,
2013-07-22 10:30:00,85.3,72.7,29.81,SSW,203,5.4,5.4,66,0.00,,,0.00,WUHU216HW,2013-07-22 15:30:00,
2013-07-22 10:35:00,85.3,72.7,29.81,SSW,203,5.4,5.4,66,0.00,,,0.00,WUHU216HW,2013-07-22 15:35:00,
2013-07-22 11:00:00,85.5,72.4,29.81,South,180,4.5,4.5,65,0.00,,,0.00,WUHU216HW,2013-07-22 16:00:00,
2013-07-22 11:05:00,85.5,72.4,29.81,South,180,4.5,4.5,65,0.00,,,0.00,WUHU216HW,2013-07-22 16:05:00,
2013-07-22 11:30:00,87.1,72.5,29.81,SSE,158,7.8,7.8,62,0.00,,,0.00,WUHU216HW,2013-07-22 16:30:00,
2013-07-22 11:35:00,87.1,72.5,29.81,SSE,158,7.8,7.8,62,0.00,,,0.00,WUHU216HW,2013-07-22 16:35:00,
2013-07-22 12:00:00,88.2,73.2,29.81,SSW,203,6.0,6.0,61,0.00,,,0.00,WUHU216HW,2013-07-22 17:00:00,
2013-07-22 12:05:00,88.2,73.2,29.81,SSW,203,6.0,6.0,61,0.00,,,0.00,WUHU216HW,2013-07-22 17:05:00,
2013-07-22 12:30:00,87.8,71.8,29.80,SSW,203,7.2,7.2,59,0.00,,,0.00,WUHU216HW,2013-07-22 17:30:00,
2013-07-22 12:35:00,87.8,71.8,29.80,SSW,203,7.2,7.2,59,0.00,,,0.00,WUHU216HW,2013-07-22 17:35:00,
2013-07-22 13:00:00,88.9,72.8,29.80,South,180,9.2,9.2,59,0.00,,,0.00,WUHU216HW,2013-07-22 18:00:00,
2013-07-22 13:05:00,88.9,72.8,29.80,South,180,9.2,9.2,59,0.00,,,0.00,WUHU216HW,2013-07-22 18:05:00,
2013-07-22 13:30:00,89.6,73.4,29.80,SW,225,4.9,4.9,59,0.00,,,0.00,WUHU216HW,2013-07-22 18:30:00,
2013-07-22 13:35:00,89.6,73.4,29.80,SW,225,4.9,4.9,59,0.00,,,0.00,WUHU216HW,2013-07-22 18:35:00,
2013-07-22 13:59:00,91.6,74.2,29.79,SW,225,4.0,4.0,57,0.00,,,0.00,WUHU216HW,2013-07-22 18:59:00,
2013-07-22 14:00:00,91.6,74.2,29.79,SW,225,4.0,4.0,57,0.00,,,0.00,WUHU216HW,2013-07-22 19:00:00,
2013-07-22 14:05:00,91.6,74.2,29.79,SW,225,4.0,4.0,57,0.00,,,0.00,WUHU216HW,2013-07-22 19:05:00,
2013-07-22 14:30:00,92.3,72.6,29.79,WSW,248,6.7,6.7,53,0.00,,,0.00,WUHU216HW,2013-07-22 19:30:00,
2013-07-22 14:35:00,91.8,72.2,29.79,SW,225,4.0,6.7,53,0.00,,,0.00,WUHU216HW,2013-07-22 19:35:00,
2013-07-22 14:40:00,91.1,72.5,29.79,WSW,248,4.5,6.7,55,0.00,,,0.00,WUHU216HW,2013-07-22 19:40:00,
2013-07-22 14:45:00,91.8,72.2,29.79,SW,225,8.5,8.5,53,0.00,,,0.00,WUHU216HW,2013-07-22 19:45:00,
2013-07-22 14:50:00,93.1,73.4,29.79,SSW,203,6.0,8.5,53,0.00,,,0.00,WUHU216HW,2013-07-22 19:50:00,
2013-07-22 14:55:00,93.6,72.7,29.78,South,180,5.8,8.5,51,0.00,,,0.00,WUHU216HW,2013-07-22 19:55:00,
2013-07-22 15:00:00,91.6,72.6,29.78,WSW,248,6.5,6.5,54,0.00,,,0.00,WUHU216HW,2013-07-22 20:00:00,
2013-07-22 15:05:00,92.0,74.0,29.78,SSW,203,7.6,7.6,56,0.00,,,0.00,WUHU216HW,2013-07-22 20:05:00,
2013-07-22 15:10:00,91.8,72.7,29.78,SW,225,5.4,7.6,54,0.00,,,0.00,WUHU216HW,2013-07-22 20:10:00,
2013-07-22 15:15:00,91.8,73.3,29.78,WSW,248,3.4,7.6,55,0.00,,,0.00,WUHU216HW,2013-07-22 20:15:00,
2013-07-22 15:16:00,92.0,73.5,29.78,SW,225,2.9,6.5,55,0.00,,,0.00,WUHU216HW,2013-07-22 20:16:00,
2013-07-22 15:17:00,92.0,73.5,29.78,SW,225,2.9,6.5,55,0.00,,,0.00,WUHU216HW,2013-07-22 20:17:00,
2013-07-22 15:22:00,93.1,72.8,29.78,South,180,5.6,6.5,52,0.00,,,0.00,WUHU216HW,2013-07-22 20:22:00,
2013-07-22 15:27:00,93.2,72.4,29.77,South,180,4.9,10.3,51,0.00,,,0.00,WUHU216HW,2013-07-22 20:27:00,
2013-07-22 15:32:00,93.6,73.8,29.78,SW,225,6.9,10.3,53,0.00,,,0.00,WUHU216HW,2013-07-22 20:32:00,
2013-07-22 15:37:00,93.1,73.9,29.77,SSW,203,4.5,8.9,54,0.00,,,0.00,WUHU216HW,2013-07-22 20:37:00,
2013-07-22 15:42:00,94.0,74.2,29.77,SSE,158,4.3,8.9,53,0.00,,,0.00,WUHU216HW,2013-07-22 20:42:00,
2013-07-22 15:43:00,94.0,74.2,29.77,SSE,158,4.3,8.9,53,0.00,,,0.00,WUHU216HW,2013-07-22 20:43:00,
2013-07-22 15:48:00,93.8,73.4,29.77,WSW,248,4.0,4.5,52,0.00,,,0.00,WUHU216HW,2013-07-22 20:48:00,
2013-07-22 15:53:00,93.4,73.1,29.77,SW,225,7.8,8.3,52,0.00,,,0.00,WUHU216HW,2013-07-22 20:53:00,
2013-07-22 15:58:00,93.1,73.4,29.77,West,270,3.4,8.3,53,0.00,,,0.00,WUHU216HW,2013-07-22 20:58:00,
2013-07-22 16:03:00,93.1,73.4,29.77,West,270,4.7,7.8,53,0.00,,,0.00,WUHU216HW,2013-07-22 21:03:00,
2013-07-22 16:08:00,92.9,72.6,29.77,SSW,203,3.4,4.7,52,0.00,,,0.00,WUHU216HW,2013-07-22 21:08:00,
2013-07-22 16:13:00,94.1,73.8,29.77,WSW,248,4.0,4.0,52,0.00,,,0.00,WUHU216HW,2013-07-22 21:13:00,
2013-07-22 16:18:00,94.3,74.0,29.76,SSW,203,4.3,4.3,52,0.00,,,0.00,WUHU216HW,2013-07-22 21:18:00,
2013-07-22 16:23:00,95.2,74.4,29.76,SSE,158,4.9,4.9,51,0.00,,,0.00,WUHU216HW,2013-07-22 21:23:00,
2013-07-22 16:28:00,94.9,73.4,29.76,SW,225,4.0,4.9,50,0.00,,,0.00,WUHU216HW,2013-07-22 21:28:00,
2013-07-22 16:33:00,94.1,72.7,29.76,West,270,5.4,5.4,50,0.00,,,0.00,WUHU216HW,2013-07-22 21:33:00,
2013-07-22 16:38:00,93.8,72.4,29.76,SSW,203,8.5,8.5,50,0.00,,,0.00,WUHU216HW,2013-07-22 21:38:00,
2013-07-22 16:43:00,93.6,72.7,29.76,SW,225,4.5,8.5,51,0.00,,,0.00,WUHU216HW,2013-07-22 21:43:00,
2013-07-22 16:48:00,93.1,72.2,29.76,SSW,203,2.5,8.5,51,0.00,,,0.00,WUHU216HW,2013-07-22 21:48:00,
2013-07-22 16:53:00,92.9,72.6,29.76,SW,225,4.0,4.0,52,0.00,,,0.00,WUHU216HW,2013-07-22 21:53:00,
2013-07-22 16:58:00,92.9,72.6,29.76,WSW,248,4.0,4.0,52,0.00,,,0.00,WUHU216HW,2013-07-22 21:58:00,
2013-07-22 17:03:00,93.2,73.5,29.76,SSW,203,4.7,4.7,53,0.00,,,0.00,WUHU216HW,2013-07-22 22:03:00,
2013-07-22 17:08:00,93.6,73.8,29.76,SW,225,1.8,4.7,53,0.00,,,0.00,WUHU216HW,2013-07-22 22:08:00,
2013-07-22 17:13:00,93.8,72.4,29.76,SW,225,6.3,6.3,50,0.00,,,0.00,WUHU216HW,2013-07-22 22:13:00,
2013-07-22 17:18:00,93.4,72.0,29.76,SSW,203,3.4,6.3,50,0.00,,,0.00,WUHU216HW,2013-07-22 22:18:00,
2013-07-22 17:23:00,93.1,71.6,29.76,SSW,203,6.9,6.9,50,0.00,,,0.00,WUHU216HW,2013-07-22 22:23:00,
2013-07-22 17:28:00,92.9,71.5,29.75,WSW,248,7.2,7.2,50,0.00,,,0.00,WUHU216HW,2013-07-22 22:28:00,
2013-07-22 17:33:00,93.1,71.0,29.75,SW,225,4.7,7.2,49,0.00,,,0.00,WUHU216HW,2013-07-22 22:33:00,
2013-07-22 17:38:00,93.8,71.0,29.75,WSW,248,3.1,4.7,48,0.00,,,0.00,WUHU216HW,2013-07-22 22:38:00,
2013-07-22 17:43:00,94.3,72.3,29.75,SSW,203,4.7,4.7,49,0.00,,,0.00,WUHU216HW,2013-07-22 22:43:00,
2013-07-22 17:48:00,94.3,69.6,29.75,WSW,248,3.1,4.7,45,0.00,,,0.00,WUHU216HW,2013-07-22 22:48:00,
2013-07-22 17:53:00,93.2,69.2,29.75,SSW,203,6.7,6.7,46,0.00,,,0.00,WUHU216HW,2013-07-22 22:53:00,
2013-07-22 17:58:00,92.5,70.6,29.75,SSW,203,2.0,6.7,49,0.00,,,0.00,WUHU216HW,2013-07-22 22:58:00,
2013-07-22 18:03:00,92.7,70.0,29.75,WSW,248,5.4,6.7,48,0.00,,,0.00,WUHU216HW,2013-07-22 23:03:00,
2013-07-22 18:08:00,93.2,69.2,29.74,SSW,203,6.5,6.5,46,0.00,,,0.00,WUHU216HW,2013-07-22 23:08:00,
2013-07-22 18:13:00,92.7,68.1,29.74,SW,225,5.8,6.5,45,0.00,,,0.00,WUHU216HW,2013-07-22 23:13:00,
2013-07-22 18:18:00,92.0,68.1,29.74,South,180,10.3,10.3,46,0.00,,,0.00,WUHU216HW,2013-07-22 23:18:00,
2013-07-22 18:23:00,90.9,67.2,29.74,SSW,203,8.5,10.5,46,0.00,,,0.00,WUHU216HW,2013-07-22 23:23:00,
2013-07-22 18:28:00,90.4,67.3,29.75,SW,225,6.3,10.5,47,0.00,,,0.00,WUHU216HW,2013-07-22 23:28:00,
2013-07-22 18:33:00,88.9,67.3,29.74,SSW,203,6.9,8.5,49,0.00,,,0.00,WUHU216HW,2013-07-22 23:33:00,
2013-07-22 18:38:00,88.7,66.5,29.74,SSE,158,7.8,8.3,48,0.00,,,0.00,WUHU216HW,2013-07-22 23:38:00,
2013-07-22 18:43:00,88.7,67.2,29.74,SSW,203,5.8,7.8,49,0.00,,,0.00,WUHU216HW,2013-07-22 23:43:00,
2013-07-22 18:48:00,88.7,67.8,29.75,SSW,203,3.4,7.8,50,0.00,,,0.00,WUHU216HW,2013-07-22 23:48:00,
2013-07-22 18:53:00,88.7,67.2,29.75,SSW,203,8.5,8.5,49,0.00,,,0.00,WUHU216HW,2013-07-22 23:53:00,
2013-07-22 18:58:00,88.9,68.0,29.75,SW,225,8.9,8.9,50,0.00,,,0.00,WUHU216HW,2013-07-22 23:58:00,
2013-07-22 19:03:00,88.6,68.1,29.75,SSW,203,7.6,8.9,51,0.00,,,0.00,WUHU216HW,2013-07-23 00:03:00,
2013-07-22 19:08:00,88.4,68.0,29.75,WSW,248,5.8,8.9,51,0.00,,,0.00,WUHU216HW,2013-07-23 00:08:00,
2013-07-22 19:13:00,88.2,67.9,29.75,SW,225,4.0,6.5,51,0.00,,,0.00,WUHU216HW,2013-07-23 00:13:00,
2013-07-22 19:18:00,87.7,67.9,29.76,SW,225,5.4,5.8,52,0.00,,,0.00,WUHU216HW,2013-07-23 00:18:00,
2013-07-22 19:23:00,86.4,67.8,29.76,WSW,248,4.7,5.4,54,0.00,,,0.00,WUHU216HW,2013-07-23 00:23:00,
2013-07-22 19:28:00,86.0,68.0,29.76,WSW,248,1.6,5.4,55,0.00,,,0.00,WUHU216HW,2013-07-23 00:28:00,
2013-07-22 19:33:00,85.7,67.6,29.76,SW,225,3.4,4.7,55,0.00,,,0.00,WUHU216HW,2013-07-23 00:33:00,
2013-07-22 19:38:00,85.5,68.0,29.76,West,270,3.4,3.4,56,0.00,,,0.00,WUHU216HW,2013-07-23 00:38:00,
2013-07-22 19:43:00,85.3,67.9,29.76,SW,225,3.4,3.4,56,0.00,,,0.00,WUHU216HW,2013-07-23 00:43:00,
2013-07-22 19:48:00,85.3,68.3,29.77,WSW,248,4.7,4.7,57,0.00,,,0.00,WUHU216HW,2013-07-23 00:48:00,
2013-07-22 19:53:00,84.8,67.9,29.76,SSW,203,1.8,4.7,57,0.00,,,0.00,WUHU216HW,2013-07-23 00:53:00,
2013-07-22 19:57:00,84.6,67.7,29.76,NW,315,1.6,4.7,57,0.00,,,0.00,WUHU216HW,2013-07-23 00:57:00,
2013-07-22 20:02:00,84.6,67.7,29.76,SW,225,2.7,2.7,57,0.00,,,0.00,WUHU216HW,2013-07-23 01:02:00,
2013-07-22 20:07:00,84.4,68.0,29.76,WSW,248,2.2,2.7,58,0.00,,,0.00,WUHU216HW,2013-07-23 01:07:00,
2013-07-22 20:13:00,84.1,67.2,29.76,SW,225,2.9,4.0,57,0.00,,,0.00,WUHU216HW,2013-07-23 01:13:00,
2013-07-22 20:18:00,83.9,67.1,29.76,SSW,203,2.9,4.0,57,0.00,,,0.00,WUHU216HW,2013-07-23 01:18:00,
2013-07-22 20:23:00,83.3,66.5,29.76,SSW,203,2.5,3.4,57,0.00,,,0.00,WUHU216HW,2013-07-23 01:23:00,
2013-07-22 20:28:00,83.0,66.2,29.76,SSW,203,1.1,3.4,57,0.00,,,0.00,WUHU216HW,2013-07-23 01:28:00,
2013-07-22 20:32:00,82.6,65.8,29.76,South,180,2.5,2.5,57,0.00,,,0.00,WUHU216HW,2013-07-23 01:32:00,
2013-07-22 20:37:00,81.9,65.6,29.76,SSW,203,1.1,2.9,58,0.00,,,0.00,WUHU216HW,2013-07-23 01:37:00,
2013-07-22 20:42:00,81.7,66.0,29.76,SSW,203,1.1,2.9,59,0.00,,,0.00,WUHU216HW,2013-07-23 01:42:00,
2013-07-22 20:47:00,81.4,65.6,29.76,South,180,1.3,1.3,59,0.00,,,0.00,WUHU216HW,2013-07-23 01:47:00,
2013-07-22 20:52:00,81.0,65.9,29.76,SSW,203,2.9,2.9,60,0.00,,,0.00,WUHU216HW,2013-07-23 01:52:00,
2013-07-22 20:57:00,81.0,65.9,29.76,SSW,203,2.0,2.9,60,0.00,,,0.00,WUHU216HW,2013-07-23 01:57:00,
2013-07-22 21:02:00,80.8,66.2,29.76,SW,225,1.1,2.9,61,0.00,,,0.00,WUHU216HW,2013-07-23 02:02:00,
2013-07-22 21:07:00,80.6,66.0,29.76,SSW,203,0.9,2.0,61,0.00,,,0.00,WUHU216HW,2013-07-23 02:07:00,
2013-07-22 21:12:00,80.3,65.6,29.76,SSW,203,0.2,2.9,61,0.00,,,0.00,WUHU216HW,2013-07-23 02:12:00,
2013-07-22 21:17:00,80.1,65.5,29.76,SSW,203,1.1,2.9,61,0.00,,,0.00,WUHU216HW,2013-07-23 02:17:00,
2013-07-22 21:22:00,79.9,65.4,29.76,SSW,203,0.7,1.1,61,0.00,,,0.00,WUHU216HW,2013-07-23 02:22:00,
2013-07-22 21:27:00,79.2,65.5,29.76,SSW,203,0.2,1.1,63,0.00,,,0.00,WUHU216HW,2013-07-23 02:27:00,
2013-07-22 21:32:00,79.0,65.3,29.77,SSW,203,0.2,0.7,63,0.00,,,0.00,WUHU216HW,2013-07-23 02:32:00,
2013-07-22 21:37:00,78.8,65.2,29.77,SSW,203,0.0,0.2,63,0.00,,,0.00,WUHU216HW,2013-07-23 02:37:00,
2013-07-22 21:42:00,78.3,65.1,29.77,SSW,203,0.4,0.4,64,0.00,,,0.00,WUHU216HW,2013-07-23 02:42:00,
2013-07-22 21:47:00,78.3,65.5,29.77,SSW,203,0.0,0.4,65,0.00,,,0.00,WUHU216HW,2013-07-23 02:47:00,
2013-07-22 21:52:00,78.1,65.0,29.77,SSW,203,0.0,0.4,64,0.00,,,0.00,WUHU216HW,2013-07-23 02:52:00,
2013-07-22 21:57:00,77.9,65.3,29.77,SSW,203,0.0,0.0,65,0.00,,,0.00,WUHU216HW,2013-07-23 02:57:00,
2013-07-22 22:02:00,77.6,65.4,29.78,SSW,203,0.0,0.0,66,0.00,,,0.00,WUHU216HW,2013-07-23 03:02:00,
2013-07-22 22:07:00,77.4,65.2,29.78,SW,225,0.0,0.0,66,0.00,,,0.00,WUHU216HW,2013-07-23 03:07:00,
2013-07-22 22:12:00,77.2,65.0,29.78,SW,225,0.0,0.0,66,0.00,,,0.00,WUHU216HW,2013-07-23 03:12:00,
2013-07-22 22:17:00,77.8,65.9,29.78,SW,225,0.7,1.1,67,0.00,,,0.00,WUHU216HW,2013-07-23 03:17:00,
2013-07-22 22:22:00,77.8,65.5,29.78,SW,225,0.0,1.1,66,0.00,,,0.00,WUHU216HW,2013-07-23 03:22:00,
2013-07-22 22:27:00,77.6,65.4,29.79,SW,225,0.0,0.7,66,0.00,,,0.00,WUHU216HW,2013-07-23 03:27:00,
2013-07-22 22:32:00,77.2,65.4,29.79,SSE,158,1.8,1.8,67,0.00,,,0.00,WUHU216HW,2013-07-23 03:32:00,
2013-07-22 22:37:00,77.0,65.3,29.80,SSE,158,1.1,1.8,67,0.00,,,0.00,WUHU216HW,2013-07-23 03:37:00,
2013-07-22 22:42:00,76.9,65.5,29.80,South,180,1.3,1.8,68,0.00,,,0.00,WUHU216HW,2013-07-23 03:42:00,
2013-07-22 22:47:00,76.9,65.5,29.80,South,180,0.9,1.6,68,0.00,,,0.00,WUHU216HW,2013-07-23 03:47:00,
2013-07-22 22:52:00,76.9,65.5,29.80,South,180,2.0,2.0,68,0.00,,,0.00,WUHU216HW,2013-07-23 03:52:00,
2013-07-22 22:57:00,76.9,65.5,29.80,South,180,2.5,2.7,68,0.00,,,0.00,WUHU216HW,2013-07-23 03:57:00,
2013-07-22 23:01:00,77.0,65.7,29.81,South,180,2.5,2.7,68,0.00,,,0.00,WUHU216HW,2013-07-23 04:01:00,
2013-07-22 23:06:00,77.0,65.7,29.81,South,180,1.8,2.5,68,0.00,,,0.00,WUHU216HW,2013-07-23 04:06:00,
2013-07-22 23:11:00,76.9,65.5,29.81,South,180,2.0,2.5,68,0.00,,,0.00,WUHU216HW,2013-07-23 04:11:00,
2013-07-22 23:16:00,76.7,65.3,29.81,SSE,158,0.2,2.5,68,0.00,,,0.00,WUHU216HW,2013-07-23 04:16:00,
2013-07-22 23:21:00,76.3,65.4,29.81,SSE,158,0.0,2.0,69,0.00,,,0.00,WUHU216HW,2013-07-23 04:21:00,
2013-07-22 23:26:00,76.1,65.3,29.81,South,180,0.9,0.9,69,0.00,,,0.00,WUHU216HW,2013-07-23 04:26:00,
2013-07-22 23:31:00,76.1,65.7,29.81,South,180,2.2,2.2,70,0.00,,,0.00,WUHU216HW,2013-07-23 04:31:00,
2013-07-22 23:36:00,76.3,66.2,29.81,South,180,2.5,2.5,71,0.00,,,0.00,WUHU216HW,2013-07-23 04:36:00,
2013-07-22 23:41:00,76.5,66.4,29.81,South,180,2.5,2.5,71,0.00,,,0.00,WUHU216HW,2013-07-23 04:41:00,
2013-07-22 23:46:00,76.7,66.6,29.81,South,180,6.9,6.9,71,0.00,,,0.00,WUHU216HW,2013-07-23 04:46:00,
2013-07-22 23:51:00,77.0,67.0,29.80,South,180,5.6,6.9,71,0.00,,,0.00,WUHU216HW,2013-07-23 04:51:00,
2013-07-22 23:56:00,77.0,67.0,29.80,SSW,203,5.1,5.6,71,0.00,,,0.00,WUHU216HW,2013-07-23 04:56:00,